Location: Steilacoom
(47.1700°N, 122.5700°W)
Time: 22:36:36
(UTC-07:00)

Envisat - Visible Passes

Search period start: 17 October 2018 00:00
Search period end: 27 October 2018 00:00
Orbit: 764 x 766 km, 98.2° (Epoch: 17 October)

Date Brightness Start Highest point End Pass type
(mag) Time Alt. Az. Time Alt. Az. Time Alt. Az.
17 Oct 2.9 19:49:12 10° SSE 19:54:15 73° ENE 19:59:20 10° N visible
17 Oct 5.7 21:30:43 10° SW 21:33:49 16° W 21:36:56 10° NW visible
18 Oct 3.6 19:13:04 10° SE 19:17:40 36° ENE 19:22:17 10° N visible
18 Oct 4.6 20:52:09 10° SSW 20:56:42 33° W 21:01:17 10° NNW visible
19 Oct 3.2 20:14:45 10° S 20:19:48 69° WSW 20:24:54 10° NNW visible
20 Oct 3.0 19:38:07 10° SSE 19:43:05 59° ENE 19:48:06 10° N visible
20 Oct 5.4 21:18:49 10° SW 21:22:30 20° W 21:26:13 10° NW visible
21 Oct 3.8 19:02:13 10° ESE 19:06:34 30° ENE 19:10:57 10° N visible
21 Oct 4.2 20:40:41 10° SSW 20:45:27 41° W 20:50:16 10° NNW visible
22 Oct 3.0 20:03:31 10° SSE 20:08:36 85° WSW 20:13:44 10° NNW visible
22 Oct 5.9 21:46:40 10° WSW 21:48:24 12° W 21:50:09 10° WNW visible
23 Oct 3.2 19:27:06 10° SE 19:31:57 47° ENE 19:36:50 10° N visible
23 Oct 5.1 21:07:05 10° SSW 21:11:12 25° W 21:15:21 10° NW visible
24 Oct 4.0 18:51:27 10° ESE 18:55:29 25° ENE 18:59:34 10° N visible
24 Oct 3.8 20:29:18 10° S 20:34:13 51° W 20:39:11 10° NNW visible
25 Oct 2.9 19:52:21 10° SSE 19:57:25 79° ENE 20:02:32 10° NNW visible
25 Oct 5.7 21:34:15 10° WSW 21:37:04 15° W 21:39:53 10° NW visible
26 Oct 3.4 19:16:09 10° SE 19:20:49 39° ENE 19:25:32 10° N visible
26 Oct 4.7 20:55:29 10° SSW 20:59:56 30° W 21:04:24 10° NNW visible
